www.pogodaiklimat.ru

Погода и климат >> Архив погоды >> Норвегия >> Киркенес аэропорт


ПОГОДА в Киркенес аэропорту

  • Прогноз погоды в Киркенес аэропорту
  • Монитор погоды в Киркенес аэропорту

АРХИВ ПОГОДЫ в Киркенес аэропорту

Время (UTC), дата Ветер
(напр.,м/с)
 
Видим.   Явления Облачность Т
(С)
Тd
(С)
f
(%)
Тe
(С)
Тes
(С)
Комфортность P
(гПа)
Po
(гПа)
Тmin
(С)
Tmax
(С)
R
(мм)
R24
(мм)
S
(см)
19 16.08 Ю 8
{9}
н/о н/о +11.7 +8.4 80 +8 +8 1008.7 998.4
20 16.08 ЮВ 7
{11}
н/о н/о +11.2 +8.6 84 +8 +8 1008.7 998.4
21 16.08 ЮВ 7
{12}
н/о н/о +10.9 +8.7 86 +7 +7 1008.4 998.0
22 16.08 Ю 7
{10}
н/о н/о +10.3 +8.6 89 +7 +7 1008.2 997.8
23 16.08 Ю 6
{9}
н/о н/о +9.3 +8.1 92 +5 +5 1008.5 998.1
00 17.08 Ю 6
{12}
н/о н/о +8.5 +7.8 95 +4 +4 1008.3 997.9
01 17.08 Ю 3
{8}
н/о н/о +8.4 +8.0 97 +6 +6 1007.8 997.4
02 17.08 Ю 6
{8}
н/о н/о +8.7 +8.1 96 +5 +5 1007.7 997.3
03 17.08 ЮВ 4
{6}
н/о н/о +9.6 +8.7 94 +7 +7 1007.3 996.9
04 17.08 ЮВ 6
{8}
н/о н/о +10.3 +8.9 91 +7 +7 1006.9 996.5
05 17.08 ЮВ 6
{9}
н/о н/о +10.4 +9.5 94 +7 +7 1006.5 996.2
06 17.08 Ю 7
{9}
н/о н/о +11.4 +10.2 92 +8 +8 1006.6 996.3 +8.2 +12.2
07 17.08 Ю 7
{9}
н/о н/о +12.0 +10.3 89 +9 +9 1006.7 996.4
08 17.08 Ю 8
{11}
н/о н/о +12.5 +10.1 85 +9 +9 1006.7 996.5
09 17.08 Ю 8
{11}
н/о н/о +12.2 +10.6 90 +9 +9 1007.0 996.7
10 17.08 Ю 8
{13}
н/о н/о +14.3 +12.2 87 +12 +12 1007.1 996.9
11 17.08 Ю 9
{11}
н/о н/о +15.7 +11.5 76 +14 +14 1007.5 997.4
12 17.08 З 4
{13}
н/о н/о +13.1 +10.8 86 +11 +11 1008.4 998.1
13 17.08 Ю 3
{5}
н/о н/о +14.2 +11.4 83 +13 +13 1008.6 998.4
14 17.08 С 2
{3}
н/о н/о +14.5 +11.3 81 +14 +14 1008.7 998.5
15 17.08 СВ 2
{5}
н/о н/о +13.7 +9.4 75 +13 +13 1008.9 998.7
16 17.08 В 2
{4}
н/о н/о +14.6 +10.6 77 +14 +14 1009.1 998.9
17 17.08 С 3
{4}
н/о н/о +13.4 +8.7 73 +12 +12 1009.2 999.0
18 17.08
{5}
н/о н/о +11.3 +8.9 85 1009.5 999.2 +10.9 +16.9
19 17.08 З 1
{2}
н/о н/о +10.8 +9.2 90 +10 +10 1009.4 999.1
20 17.08 З 1
{2}
н/о н/о +10.9 +9.3 90 +11 +11 1009.2 998.9
21 17.08 З 1
{2}
н/о н/о +9.8 +9.2 96 +9 +9 1009.3 998.9
22 17.08
{2}
н/о н/о +9.6 +9.2 97 1009.4 999.0
23 17.08 С 2
{2}
н/о н/о +9.6 +9.2 97 +8 +8 1009.5 999.1
00 18.08 штиль 0
{2}
н/о н/о +9.3 +8.9 97 +8 +8 1009.4 999.0
01 18.08 штиль 0
{1}
н/о н/о +9.4 +9.0 97 +8 +8 1009.2 998.8
02 18.08 ЮВ 2
{4}
н/о н/о +9.6 +9.3 98 +8 +8 1008.7 998.4
03 18.08 Ю 1
{4}
н/о н/о +10.5 +10.2 98 +10 +10 1008.3 998.0
04 18.08 ЮВ 6
{8}
н/о н/о +12.8 +12.5 98 +10 +10 1007.8 997.5
05 18.08 ЮВ 5
{8}
н/о н/о +13.5 +12.7 95 +11 +11 1007.6 997.4
06 18.08 Ю 6
{9}
н/о н/о +14.7 +13.8 94 +13 +13 1007.6 997.5 +9.3 +14.7
07 18.08 Ю 8
{11}
н/о н/о +16.5 +13.0 80 +15 +15 1007.3 997.2
08 18.08 Ю 9
{12}
н/о н/о +17.6 +12.5 72 +16 +16 1007.4 997.4
09 18.08 Ю 10
{15}
н/о н/о +18.2 +11.5 65 +17 +17 1007.0 997.0
10 18.08 Ю 10
{13}
н/о н/о +19.3 +10.6 57 +19 +19 1007.2 997.2
11 18.08 Ю 11
{15}
н/о н/о +19.4 +10.9 58 +20 +20 1007.5 997.5
12 18.08 Ю 10
{15}
н/о н/о +20.3 +10.4 53 +21 +21 комфорт 1007.5 997.5
13 18.08 Ю 10
{14}
н/о н/о +20.4 +10.2 52 +21 +21 комфорт 1007.7 997.7
14 18.08 Ю 8
{13}
н/о н/о +21.0 +10.8 52 +23 +23 комфорт 1007.8 997.8
15 18.08 Ю 6
{14}
н/о н/о +20.0 +10.4 54 +21 +21 комфорт 1007.9 997.9
16 18.08 Ю 8
{11}
н/о н/о +20.0 +10.4 54 +21 +21 комфорт 1007.9 997.9
17 18.08 Ю 6
{11}
н/о н/о +19.1 +10.7 58 +20 +20 1008.4 998.3
18 18.08 Ю 7
{14}
н/о н/о +18.1 +12.1 68 +17 +17 1008.7 998.6 +14.7 +21.1
19 18.08 Ю 7
{11}
н/о н/о +17.4 +11.9 70 +16 +16 1009.0 998.9
20 18.08 ЮВ 6
{10}
н/о н/о +15.9 +11.7 76 +15 +15 1009.3 999.1
21 18.08 ЮВ 5
{9}
н/о н/о +16.0 +12.0 77 +15 +15 1009.3 999.2
22 18.08 ЮВ 7
{9}
н/о н/о +15.4 +12.5 83 +14 +14 1009.5 999.4
23 18.08 ЮВ 6
{9}
н/о н/о +14.6 +12.5 87 +13 +13 1009.7 999.5
00 19.08 ЮВ 6
{11}
н/о н/о +13.7 +11.9 89 +11 +11 1009.7 999.5
01 19.08 ЮВ 7
{9}
н/о н/о +13.1 +11.7 91 +10 +10 1009.7 999.4
02 19.08 ЮВ 8
{10}
н/о н/о +13.6 +11.7 88 +11 +11 1009.4 999.2
03 19.08 ЮВ 7
{10}
н/о н/о +13.2 +11.3 88 +11 +11 1009.4 999.1
04 19.08 ЮВ 7
{10}
н/о н/о +13.4 +10.9 85 +11 +11 1009.6 999.3
05 19.08 ЮВ 7
{10}
н/о н/о +14.5 +10.1 75 +12 +12 1009.4 999.1
06 19.08 ЮВ 7
{10}
н/о н/о +15.9 +9.8 67 +14 +14 1009.0 998.8 +13.0 +18.1
07 19.08 ЮВ 5
{10}
н/о н/о +17.2 +9.9 62 +17 +17 1008.7 998.6
08 19.08 Ю 8
{12}
н/о н/о +18.0 +8.8 55 +17 +17 1008.2 998.1
09 19.08 Ю 9
{14}
н/о н/о +19.6 +9.2 51 +20 +20 1007.6 997.6
10 19.08 ЮВ 8
{12}
н/о н/о +20.1 +9.1 49 +21 +21 комфорт 1007.0 997.0
11 19.08 Ю 7
{12}
н/о н/о +20.5 +8.8 47 +21 +21 комфорт 1006.6 996.6
12 19.08 ЮВ 8
{14}
н/о н/о +20.0 +9.0 49 +21 +21 комфорт 1006.1 996.1
13 19.08 ЮВ 8
{11}
н/о н/о +20.7 +9.0 47 +22 +22 комфорт 1005.4 995.5
14 19.08 ЮВ 7
{11}
н/о н/о +19.9 +8.9 49 +21 +21 комфорт 1004.9 994.9
15 19.08 Ю 8
{12}
н/о н/о +19.4 +9.6 53 +20 +20 1004.4 994.4
16 19.08 Ю 9
{14}
н/о н/о +18.8 +10.1 57 +19 +19 1004.0 994.0
17 19.08 Ю 7
{10}
н/о н/о +16.8 +11.5 71 +16 +16 1004.3 994.2
18 19.08 ЮВ 5
{14}
н/о н/о +15.0 +12.9 87 +14 +14 1004.0 993.9 +15.0 +20.8
19 19.08 ЮВ 6
{8}
н/о н/о +15.0 +13.0 88 +13 +13 1003.4 993.3
20 19.08 ЮВ 4
{9}
н/о н/о +14.8 +12.3 85 +14 +14 1002.9 992.7
21 19.08 ЮВ 5
{7}
н/о н/о +14.6 +12.1 85 +13 +13 1002.4 992.3
22 19.08 ЮВ 6
{9}
н/о н/о +15.2 +11.8 80 +14 +14 1001.8 991.6
23 19.08 ЮВ 7
{11}
н/о н/о +14.4 +11.9 85 +12 +12 1001.5 991.4
00 20.08 Ю 8
{12}
н/о н/о +14.6 +12.1 85 +12 +12 1001.7 991.6
01 20.08 Ю 7
{11}
н/о н/о +14.4 +11.9 85 +12 +12 1001.7 991.5
02 20.08 Ю 8
{12}
н/о н/о +14.0 +11.0 82 +11 +11 1001.7 991.6
03 20.08 Ю 7
{11}
н/о н/о +14.1 +10.7 80 +12 +12 1001.9 991.7
04 20.08 Ю 7
{11}
н/о н/о +14.3 +10.7 79 +12 +12 1001.7 991.6
05 20.08 Ю 8
{12}
н/о н/о +14.9 +10.5 75 +13 +13 1001.9 991.7
06 20.08 Ю 8
{12}
н/о н/о +15.5 +11.1 75 +14 +14 1002.3 992.2 +13.8 +15.5
07 20.08 Ю 8
{12}
н/о н/о +16.4 +11.4 72 +15 +15 1002.9 992.8
08 20.08 Ю 9
{13}
н/о н/о +17.0 +10.4 65 +16 +16 1003.2 993.2
09 20.08 Ю 8
{14}
н/о н/о +16.3 +10.8 70 +15 +15 1003.8 993.7
10 20.08 ЮЗ 7
{12}
н/о н/о +16.1 +11.5 74 +15 +15 1004.4 994.3
11 20.08 ЮЗ 8
{11}
н/о н/о +19.1 +10.4 57 +19 +19 1004.6 994.6
12 20.08 ЮЗ 7
{14}
н/о н/о +19.7 +10.1 54 +20 +20 1005.2 995.2
13 20.08 ЮЗ 6
{10}
н/о н/о +19.4 +9.9 54 +20 +20 1005.5 995.5
14 20.08 Ю 6
{9}
н/о н/о +19.7 +10.4 55 +21 +21 комфорт 1005.9 995.9
15 20.08 ЮЗ 6
{9}
н/о н/о +19.6 +9.8 53 +20 +20 1006.5 996.5
16 20.08 С 3
{7}
н/о н/о +16.1 +10.6 70 +16 +16 1007.5 997.4
17 20.08 СЗ 1
{5}
н/о н/о +14.7 +10.1 74 +15 +15 1008.4 998.2
18 20.08 ЮВ 2
{10}
н/о н/о +14.4 +10.4 77 +14 +14 1008.8 998.6 +14.1 +19.9
19 20.08 ЮВ 2
{4}
н/о н/о +12.9 +10.8 87 +12 +12 1009.3 999.0
20 20.08 Ю 4
{5}
н/о н/о +13.4 +10.8 84 +12 +12 1009.5 999.3
21 20.08 Ю 4
{5}
н/о н/о +13.6 +10.8 83 +12 +12 1009.6 999.4
22 20.08 ЮВ 4
{5}
н/о н/о +12.5 +10.6 88 +11 +11 1009.9 999.6
23 20.08 Ю 4
{5}
н/о н/о +11.9 +10.5 91 +10 +10 1010.2 999.9
00 21.08 ЮВ 3
{6}
н/о н/о +11.4 +10.3 93 +9 +9 1010.6 1000.3
01 21.08 Ю 3
{6}
н/о н/о +10.8 +10.2 96 +9 +9 1011.2 1000.8
02 21.08 Ю 2
{5}
н/о н/о +10.3 +9.7 96 +9 +9 1011.6 1001.2
03 21.08 ЮВ 3
{4}
н/о н/о +10.4 +9.8 96 +8 +8 1011.9 1001.5
04 21.08 ЮВ 3
{4}
н/о н/о +10.7 +10.1 96 +9 +9 1012.3 1002.0
05 21.08 ЮВ 3
{4}
н/о н/о +11.2 +10.3 94 +9 +9 1012.6 1002.3
06 21.08
{6}
н/о н/о +11.8 +10.7 93 1012.9 1002.5 +10.2 +14.3
07 21.08 С 2
{3}
н/о н/о +11.0 +10.2 95 +10 +10 1013.2 1002.8
08 21.08 С 2
{3}
н/о н/о +12.5 +11.4 93 +11 +11 1013.3 1003.0
09 21.08 С 2
{3}
н/о н/о +12.4 +10.8 90 +11 +11 1013.4 1003.1
10 21.08 С 2
{3}
н/о н/о +12.6 +10.8 89 +12 +12 1013.5 1003.2
11 21.08 С 3
{4}
н/о н/о +13.3 +10.8 85 +12 +12 1013.8 1003.5
12 21.08 С 3
{4}
н/о н/о +13.8 +10.8 82 +13 +13 1013.6 1003.3
13 21.08 С 3
{4}
н/о н/о +14.4 +10.6 78 +13 +13 1013.6 1003.3
14 21.08 С 3
{4}
н/о н/о +13.8 +10.4 80 +13 +13 1013.4 1003.1
15 21.08 С 3
{4}
н/о н/о +12.7 +10.1 84 +11 +11 1013.5 1003.2
16 21.08 С 3
{5}
н/о н/о +12.1 +10.0 87 +10 +10 1013.4 1003.1
17 21.08 С 2
{4}
н/о н/о +11.0 +9.9 93 +10 +10 1013.8 1003.4
18 21.08 СВ 2
{7}
н/о н/о +17.1 +17.1 100 +17 +17 1013.4 1003.2 +10.7 +17.1
19 21.08 Ю 2
{2}
н/о н/о +16.7 +16.7 100 +17 +17 1013.1 1003.0
20 21.08
{3}
н/о н/о +15.8 +15.8 100 1013.4 1003.2
21 21.08 С 1
{2}
н/о н/о +15.8 +15.8 100 +16 +16 1013.1 1002.9
22 21.08 С 1
{2}
н/о н/о +15.5 +15.5 100 +16 +16 1013.1 1002.9
23 21.08 С 1
{2}
н/о н/о +15.2 +15.2 100 +16 +16 1012.9 1002.7
00 22.08 ЮВ 1
{3}
н/о н/о +15.0 +15.0 100 +15 +15 1012.9 1002.6
01 22.08 ЮВ 1
{2}
н/о н/о +14.7 +14.7 100 +15 +15 1012.9 1002.6
02 22.08 ЮВ 1
{3}
н/о н/о +14.9 +14.9 100 +15 +15 1012.6 1002.4
03 22.08 З 1
{2}
н/о н/о +14.8 +14.8 100 +15 +15 1012.6 1002.4
04 22.08 штиль 0
{2}
н/о н/о +14.7 +14.7 100 +14 +14 1012.6 1002.3
05 22.08 СЗ 1
{2}
н/о н/о +14.8 +14.8 100 +15 +15 1012.6 1002.4
06 22.08 С 1
{3}
н/о н/о +9.8 +9.7 99 +9 +9 1013.1 1002.7 +9.8 +17.1
07 22.08 З 1
{3}
н/о н/о +10.2 +9.9 98 +10 +10 1013.1 1002.7
08 22.08 З 2
{3}
н/о н/о +10.5 +10.2 98 +9 +9 1013.4 1003.0
09 22.08 З 3
{5}
н/о н/о +11.2 +10.7 97 +9 +9 1013.6 1003.2
10 22.08 СЗ 3
{6}
н/о н/о +12.3 +10.4 88 +11 +11 1013.7 1003.4
11 22.08 С 2
{5}
н/о н/о +13.6 +10.6 82 +13 +13 1013.5 1003.2
12 22.08 С 3
{6}
н/о н/о +14.3 +10.3 77 +13 +13 1013.6 1003.4
13 22.08 СЗ 3
{5}
н/о н/о +14.9 +10.5 75 +14 +14 1013.8 1003.6
14 22.08 С 4
{6}
н/о н/о +14.2 +9.6 74 +13 +13 1013.9 1003.7
15 22.08 С 4
{6}
н/о н/о +14.0 +9.3 73 +13 +13 1014.1 1003.8
16 22.08 СЗ 3
{5}
н/о н/о +13.5 +9.0 74 +12 +12 1014.3 1004.0
17 22.08 СЗ 5
{7}
н/о н/о +12.8 +8.5 75 +11 +11 1014.7 1004.3
18 22.08 СЗ 6
{8}
н/о н/о +11.9 +7.2 73 +9 +9 1015.2 1004.8 +9.8 +15.2
19 22.08 З 3
{6}
н/о н/о +11.2 +7.5 78 +9 +9 1015.4 1005.0
20 22.08 З 3
{7}
н/о н/о +9.7 +6.8 82 +7 +7 1015.8 1005.4
21 22.08 З 5
{6}
н/о н/о +8.4 +5.9 84 +5 +5 1016.0 1005.5
22 22.08 З 3
{7}
н/о н/о +8.3 +5.9 85 +6 +6 1016.0 1005.5
23 22.08 З 3
{5}
н/о н/о +8.1 +5.7 85 +5 +5 1016.3 1005.7
00 23.08 З 3
{7}
н/о н/о +8.0 +5.6 85 +5 +5 1016.5 1006.0
01 23.08 З 3
{5}
н/о н/о +7.8 +5.6 86 +5 +5 1016.6 1006.1
02 23.08 З 3
{5}
н/о н/о +7.8 +5.6 86 +5 +5 1016.7 1006.2
03 23.08 З 2
{4}
н/о н/о +8.0 +5.5 84 +6 +6 1016.9 1006.4
04 23.08 З 2
{4}
н/о н/о +8.2 +5.3 82 +6 +6 1017.0 1006.5
05 23.08 З 3
{4}
н/о н/о +8.5 +5.6 82 +6 +6 1017.1 1006.6
06 23.08 З 3
{5}
н/о н/о +8.6 +5.4 80 +6 +6 1017.4 1006.9 +7.8 +11.9
07 23.08 ЮЗ 2
{4}
н/о н/о +8.8 +4.8 76 +7 +7 1017.5 1007.0
08 23.08 З 2
{5}
н/о н/о +9.1 +4.5 73 +8 +8 1017.5 1007.0
09 23.08 ЮЗ 2
{4}
н/о н/о +9.4 +4.8 73 +8 +8 1017.7 1007.2
10 23.08 ЮЗ 1
{5}
н/о н/о +9.9 +4.9 71 +10 +10 1017.8 1007.3
11 23.08 СВ 2
{4}
н/о н/о +10.2 +4.8 69 +9 +9 1017.7 1007.2
12 23.08 В 2
{5}
н/о н/о +11.2 +5.1 66 +10 +10 1017.7 1007.3
13 23.08 СВ 3
{4}
н/о н/о +11.3 +4.8 64 +10 +10 1017.6 1007.2
14 23.08 СВ 2
{4}
н/о н/о +11.8 +5.0 63 +11 +11 1017.4 1007.0
15 23.08 С 2
{3}
н/о н/о +11.6 +3.9 59 +11 +11 1017.3 1006.9
16 23.08 СВ 3
{4}
н/о н/о +11.3 +5.6 68 +10 +10 1017.2 1006.8
17 23.08 В 4
{5}
н/о н/о +10.2 +5.6 73 +8 +8 1017.2 1006.8

 

Местоположение метеостанции Киркенес аэропорт (Норвегия): широта 69.73 долгота 29.90 высота над уровнем моря 89 м.

В архиве по умолчанию представлена погода в Киркенес аэропорту за последнюю неделю. Архивные данные за месяц целиком и за предыдущие месяцы, начиная с января 2011 года, Вы можете получить, выбрав интересующий диапазон дат из раскрывающегося списка и нажав кнопку "Ввод!".


*Определитесь, кто Вы:
робот инопланетянин человек

Внимание! Время в таблицах - всемирное. Для получения местного времени необходимо прибавить поправку, которая равна 1 ч.

Смотрите также архив погоды в соседних городах и на ближайших метеорологических станциях:

Погода в Пасвике (Норвегия) (32 км)
Погода в Вадсо аэропорту (Норвегия) (38 км)
Погода в Никеле (Мурманская область, Россия) (39 км)
Погода в Инари Кираккаярви (Финляндия) (42 км)
Погода в Порту Лиинахамари (Мурманская область, Россия) (57 км)
Погода в Нируде (Норвегия) (69 км)
Погода в Инари Вайла (Финляндия) (75 км)
Погода в Вардё аэропорту (Норвегия) (81 км)
Погода в Вайда-Губе (Мурманская область, Россия) (83 км)
Погода в Перевале (Мурманская область, Россия) (83 км)

Пояснения к столбцам:

Ветер - указаны скорость ветра в м/с - средняя за 10 мин, порывы в срок и между сроками (в фигурных скобках) и направление, откуда дует ветер: С - северный, СВ - северо-восточный, В - восточный, ЮВ - юго-восточный, Ю - южный, ЮЗ - юго-западный, З - западный, СЗ - северо-западный.
Видимость - горизонтальная дальность видимости в метрах или километрах. При видимости от 1 до 10 км при отсутствии осадков обычно наблюдается дымка, при ухудшении видимости до 1 км и менее - туман. В сухую погоду видимость может ухудшаться дымом, пылью или мглою.
Явления - указаны атмосферные явления, наблюдавшиеся в срок или в последний час перед сроком; фигурными скобками обозначены явления, наблюдавшиеся между сроками (за 1-3 часа до срока); квадратными скобками обозначены град или гололедные отложения с указанием их диаметра в мм.
Облачность - указаны через наклонную черту общая и нижняя облачность в баллах и высота нижней границы облаков в метрах; квадратными скобками обозначены формы облаков: Ci - перистые, Cs - перисто-слоистые, Cc - перисто-кучевые, Ac - высококучевые, As - высокослоистые, Sc - слоисто-кучевые, Ns - слоисто-дождевые, Cu - кучевые, Cb - кучево-дождевые. Подробнее классификацию облаков см. в Атласе облаков (PDF).
T - Температура воздуха - температура, измеренная на высоте 2 м над землей.
Td - Температура точки росы - температура, при понижении до которой содержащийся в воздухе водяной пар достигнет насыщения.
f - Относительная влажность воздуха - влажноcть воздуха, измеренная на высоте 2 м над землей.
Te - Эффективная температура - температура, которую ощущает одетый по сезону человек в тени. Характеристика душности погоды. При расчете учитывается влияние влажности воздуха и скорости ветра на теплоощущения человека.
Tes - Эффективная температура на солнце - температура, которую ощущает человек, с поправкой на солнечный нагрев. Характеристика знойности погоды. Зависит от высоты солнца над горизонтом, облачности и скорости ветра. Ночью, в пасмурную погоду, а также при ветре 12 м/с и более поправка равна нулю.
P - Атмосферное давление - приведенное к уровню моря атмосферное давление.
Po - Атмосферное давление - измеренное на уровне метеостанции атмосферное давление.
Tmin - Минимальная температура - минимум температуры воздуха на высоте 2 м над землей.
Tmax - Максимальная температура - максимум температуры воздуха на высоте 2 м над землей.
R - Количество осадков - Количество выпавших осадков за период времени, мм. При наведении курсора мыши на число - период времени, за который выпало указанное количество осадков.
R24 - Количество осадков - Количество выпавших осадков за 24 часа, мм.
S - Снежный покров - Высота снежного покрова, см. При наведении курсора мыши на число - состояние снежного покрова и степень покрытия местности в баллах.